Weather History for KCXP - July, 2013

Change the Weather History Date:

Sunday, July 21, 2013

  Actual Average Record
Temperature  
Mean Temperature 82 °F -  
Max Temperature 102 °F 89 °F 102 °F (2013)
Min Temperature 62 °F 49 °F 48 °F (2011)
Cooling Degree Days 17    
Growing Degree Days 32 (Base 50)    
Moisture  
Dew Point 37 °F    
Average Humidity 23    
Maximum Humidity 52    
Minimum Humidity 6    
Precipitation  
Precipitation 0.00 in - - ()
Sea Level Pressure  
Sea Level Pressure 29.99 in    
Wind  
Wind Speed 5 mph (WNW)    
Max Wind Speed 17 mph    
Max Gust Speed 25 mph    
Visibility 10 miles    
Events      
Averages and records for this station are not official NWS values.
T = Trace of Precipitation, MM = Missing Value Source: NWS Daily Summary

Daily Weather History Graph

Daily Weather History Graph

Search for Another Location

Airport or City:

Trip Planner

Search our weather history database for the weather conditions in past years. The results will help you decide how hot, cold, wet, or windy it might be!

Date:

Astronomy

Jul. 21, 2013 Rise Set
Actual Time 5:50 AM PDT 8:20 PM PDT
Civil Twilight 5:19 AM PDT 8:50 PM PDT
Nautical Twilight 4:40 AM PDT 9:29 PM PDT
Astronomical Twilight 3:58 AM PDT 10:11 PM PDT
Moon 7:22 PM PDT (7/21) 4:41 AM PDT (7/21)
Length of Visible Light 15h 31m
Length of Day
14h 30m
Waxing Gibbous, 99% of the Moon is Illuminated
Jul 21
Waxing Gibbous
Jul 22
Full
Jul 29
Last Quarter
Aug 6
New
Aug 14
First Quarter

Hourly Weather History & Observations

Time (PDT) Temp. Dew Point Humidity Pressure Visibility Wind Dir Wind Speed Gust Speed Precip Events Conditions
12:15 AM 77.0 °F 44.6 °F 32% 30.00 in 10.0 mi SSW 3.5 mph - N/A   Clear
12:35 AM 75.2 °F 44.6 °F 34% 30.00 in 10.0 mi SSE 3.5 mph - N/A   Clear
12:55 AM 71.6 °F 44.6 °F 38% 30.00 in 10.0 mi East 5.8 mph - N/A   Clear
1:15 AM 71.6 °F 42.8 °F 35% 30.00 in 10.0 mi Calm Calm - N/A   Clear
1:35 AM 71.6 °F 44.6 °F 38% 30.00 in 10.0 mi Calm Calm - N/A   Clear
1:55 AM 71.6 °F 42.8 °F 35% 30.00 in 10.0 mi Calm Calm - N/A   Clear
2:15 AM 69.8 °F 41.0 °F 35% 30.00 in 10.0 mi Calm Calm - N/A   Clear
2:35 AM 69.8 °F 41.0 °F 35% 30.00 in 10.0 mi Calm Calm - N/A   Clear
2:55 AM 71.6 °F 41.0 °F 33% 30.00 in 10.0 mi NW 3.5 mph - N/A   Clear
3:15 AM 71.6 °F 41.0 °F 33% 30.01 in 10.0 mi NW 4.6 mph - N/A   Clear
3:35 AM 71.6 °F 41.0 °F 33% 30.01 in 10.0 mi Calm Calm - N/A   Clear
3:55 AM 69.8 °F 41.0 °F 35% 30.01 in 10.0 mi West 3.5 mph - N/A   Clear
4:15 AM 68.0 °F 42.8 °F 40% 30.02 in 10.0 mi Calm Calm - N/A   Clear
4:35 AM 68.0 °F 41.0 °F 37% 30.02 in 10.0 mi WNW 3.5 mph - N/A   Clear
4:55 AM 68.0 °F 42.8 °F 40% 30.02 in 10.0 mi WSW 3.5 mph - N/A   Clear
5:15 AM 66.2 °F 41.0 °F 40% 30.02 in 10.0 mi NW 3.5 mph - N/A   Clear
5:35 AM 64.4 °F 42.8 °F 45% 30.03 in 10.0 mi WSW 3.5 mph - N/A   Clear
5:55 AM 64.4 °F 42.8 °F 45% 30.03 in 10.0 mi Calm Calm - N/A   Clear
6:15 AM 62.6 °F 44.6 °F 52% 30.03 in 10.0 mi SE 5.8 mph - N/A   Clear
6:35 AM 62.6 °F 44.6 °F 52% 30.03 in 10.0 mi Calm Calm - N/A   Clear
6:55 AM 64.4 °F 44.6 °F 49% 30.04 in 10.0 mi Calm Calm - N/A   Clear
7:15 AM 68.0 °F 44.6 °F 43% 30.04 in 10.0 mi North 3.5 mph - N/A   Clear
7:35 AM 71.6 °F 41.0 °F 33% 30.04 in 10.0 mi NW 4.6 mph - N/A   Clear
7:55 AM 73.4 °F 41.0 °F 31% 30.05 in 10.0 mi NW 3.5 mph - N/A   Clear
8:15 AM 75.2 °F 41.0 °F 29% 30.05 in 10.0 mi Calm Calm - N/A   Clear
8:35 AM 77.0 °F 42.8 °F 29% 30.04 in 10.0 mi West 3.5 mph - N/A   Clear
8:55 AM 77.0 °F 42.8 °F 29% 30.05 in 10.0 mi WNW 3.5 mph - N/A   Clear
9:15 AM 80.6 °F 44.6 °F 28% 30.04 in 10.0 mi WSW 4.6 mph - N/A   Clear
9:35 AM 84.2 °F 42.8 °F 23% 30.03 in 10.0 mi Calm Calm - N/A   Clear
9:55 AM 84.2 °F 44.6 °F 25% 30.03 in 10.0 mi SW 4.6 mph - N/A   Clear
10:15 AM 86.0 °F 41.0 °F 20% 30.02 in 10.0 mi SW 3.5 mph - N/A   Clear
11:15 AM 93.2 °F 32.0 °F 11% 30.00 in 10.0 mi Calm Calm - N/A   Clear
11:35 AM 95.0 °F 32.0 °F 11% 30.00 in 10.0 mi Calm Calm - N/A   Clear
11:55 AM 96.8 °F 30.2 °F 10% 30.00 in 10.0 mi WNW 9.2 mph - N/A   Clear
12:15 PM 95.0 °F 30.2 °F 10% 30.00 in 10.0 mi North 5.8 mph - N/A   Clear
12:35 PM 98.6 °F 28.4 °F 8% 29.99 in 10.0 mi North 6.9 mph - N/A   Clear
12:55 PM 100.4 °F 28.4 °F 8% 29.99 in 10.0 mi SSW 9.2 mph - N/A   Clear
1:15 PM 98.6 °F 28.4 °F 8% 29.98 in 10.0 mi West 6.9 mph - N/A   Clear
1:35 PM 100.4 °F 32.0 °F 9% 29.98 in 10.0 mi NNW 13.8 mph 19.6 mph N/A   Clear
1:55 PM 100.4 °F 30.2 °F 9% 29.97 in 10.0 mi NNW 9.2 mph - N/A   Clear
2:15 PM 100.4 °F 30.2 °F 9% 29.97 in 10.0 mi WNW 8.1 mph 17.3 mph N/A   Clear
2:35 PM 100.4 °F 28.4 °F 8% 29.97 in 10.0 mi NNW 9.2 mph 17.3 mph N/A   Clear
2:55 PM 100.4 °F 30.2 °F 9% 29.96 in 10.0 mi NNE 8.1 mph 19.6 mph N/A   Clear
3:15 PM 102.2 °F 21.2 °F 6% 29.95 in 10.0 mi NW 8.1 mph - N/A   Clear
3:35 PM 102.2 °F 23.0 °F 6% 29.95 in 10.0 mi West 8.1 mph 16.1 mph N/A   Clear
3:55 PM 102.2 °F 30.2 °F 8% 29.94 in 10.0 mi NW 16.1 mph 20.7 mph N/A   Clear
4:15 PM 102.2 °F 30.2 °F 8% 29.94 in 10.0 mi WNW 10.4 mph 24.2 mph N/A   Clear
4:35 PM 102.2 °F 32.0 °F 9% 29.94 in 10.0 mi West 15.0 mph 21.9 mph N/A   Clear
4:55 PM 100.4 °F 30.2 °F 9% 29.94 in 10.0 mi WNW 13.8 mph 24.2 mph N/A   Clear
5:15 PM 100.4 °F 30.2 °F 9% 29.93 in 10.0 mi West 13.8 mph 21.9 mph N/A   Clear
5:35 PM 98.6 °F 28.4 °F 8% 29.93 in 10.0 mi West 15.0 mph 24.2 mph N/A   Clear
5:55 PM 98.6 °F 28.4 °F 8% 29.92 in 10.0 mi West 15.0 mph 24.2 mph N/A   Clear
6:15 PM 98.6 °F 30.2 °F 9% 29.93 in 10.0 mi West 12.7 mph 25.3 mph N/A   Clear
6:35 PM 96.8 °F 32.0 °F 10% 29.93 in 10.0 mi West 16.1 mph 25.3 mph N/A   Clear
6:55 PM 96.8 °F 32.0 °F 10% 29.93 in 10.0 mi West 13.8 mph 23.0 mph N/A   Clear
7:15 PM 95.0 °F 32.0 °F 11% 29.94 in 10.0 mi West 13.8 mph 23.0 mph N/A   Clear
7:35 PM 93.2 °F 30.2 °F 11% 29.95 in 10.0 mi WNW 17.3 mph 20.7 mph N/A   Clear
7:55 PM 93.2 °F 32.0 °F 11% 29.95 in 10.0 mi WNW 12.7 mph 18.4 mph N/A   Clear
8:15 PM 91.4 °F 32.0 °F 12% 29.96 in 10.0 mi West 8.1 mph - N/A   Clear
8:35 PM 91.4 °F 32.0 °F 12% 29.97 in 10.0 mi NW 12.7 mph 19.6 mph N/A   Clear
8:55 PM 89.6 °F 33.8 °F 14% 29.98 in 10.0 mi North 3.5 mph - N/A   Clear
9:15 PM 89.6 °F 35.6 °F 15% 29.98 in 10.0 mi Calm Calm - N/A   Clear
9:35 PM 84.2 °F 39.2 °F 20% 30.00 in 10.0 mi Calm Calm - N/A   Clear
9:55 PM 82.4 °F 41.0 °F 23% 30.00 in 10.0 mi SE 3.5 mph - N/A   Clear
10:15 PM 84.2 °F 42.8 °F 23% 30.01 in 10.0 mi Calm Calm - N/A   Clear
10:35 PM 82.4 °F 44.6 °F 26% 30.00 in 10.0 mi South 3.5 mph - N/A   Clear
10:55 PM 78.8 °F 46.4 °F 32% 30.01 in 10.0 mi NE 4.6 mph - N/A   Clear
11:15 PM 77.0 °F 44.6 °F 32% 30.02 in 10.0 mi Calm Calm - N/A   Clear
11:35 PM 75.2 °F 39.2 °F 27% 30.02 in 10.0 mi North 3.5 mph - N/A   Clear
11:55 PM 75.2 °F 37.4 °F 25% 30.03 in 10.0 mi North 11.5 mph - N/A   Clear